Back to catalog

STARLINK-30391

AliveCommunicationsVLEO
NORAD 57817·PAYLOAD·🇺🇸 United States

Launched Sep 9, 2023 from Cape Canaveral Space Force Station

Loading…

Next Passes (next 24 hours)

TLE

FreshSource: CelesTrak SupGP

Epoch: Sep 14, 2026, 22:23 UTC

1 57817C 23138K   26257.93312500  .00028761  00000+0  10419-2 0  2577
2 57817  43.0004 245.7317 0001441 263.1522 223.9803 15.27559090    12

Track STARLINK-30391 in real time with AllMySat

Download on the App Store